TimeCDT,TemperatureF,Dew PointF,Humidity,Sea Level PressureIn,VisibilityMPH,Wind Direction,Wind SpeedMPH,Gust SpeedMPH,PrecipitationIn,Events,Conditions,WindDirDegrees,DateUTC
12:53 AM,48.0,28.0,46,29.29,10.0,South,27.6,41.4,N/A,,Clear,170,2014-03-18 05:53:00
1:53 AM,46.9,28.0,48,29.26,10.0,SSE,25.3,32.2,N/A,,Clear,160,2014-03-18 06:53:00
2:53 AM,46.0,28.0,50,29.25,10.0,South,20.7,33.4,N/A,,Partly Cloudy,170,2014-03-18 07:53:00
3:53 AM,42.1,28.0,58,29.27,10.0,South,8.1,-,N/A,,Clear,180,2014-03-18 08:53:00
4:53 AM,37.9,27.0,65,29.26,10.0,SSE,10.4,-,N/A,,Clear,160,2014-03-18 09:53:00
5:53 AM,37.9,28.0,68,29.26,10.0,SSE,9.2,-,N/A,,Clear,150,2014-03-18 10:53:00
6:53 AM,37.0,28.0,70,29.29,10.0,SSE,8.1,-,N/A,,Clear,160,2014-03-18 11:53:00
7:53 AM,36.0,28.0,73,29.31,10.0,Variable,3.5,-,N/A,,Clear,0,2014-03-18 12:53:00
8:53 AM,37.9,30.0,73,29.34,10.0,Calm,Calm,-,N/A,,Clear,0,2014-03-18 13:53:00
9:53 AM,45.0,32.0,60,29.38,10.0,NW,21.9,35.7,N/A,,Clear,320,2014-03-18 14:53:00
10:53 AM,45.0,32.0,60,29.41,10.0,NW,26.5,36.8,N/A,,Mostly Cloudy,320,2014-03-18 15:53:00
11:53 AM,51.1,33.1,50,29.41,10.0,NNW,29.9,36.8,N/A,,Clear,330,2014-03-18 16:53:00
12:53 PM,52.0,33.1,49,29.44,10.0,NNW,26.5,32.2,N/A,,Clear,330,2014-03-18 17:53:00
1:53 PM,52.0,32.0,47,29.47,10.0,NNW,23.0,29.9,N/A,,Clear,330,2014-03-18 18:53:00
2:53 PM,51.1,32.0,48,29.51,10.0,NNW,19.6,28.8,N/A,,Scattered Clouds,330,2014-03-18 19:53:00
3:53 PM,46.0,30.0,54,29.56,10.0,NNW,24.2,31.1,N/A,,Overcast,330,2014-03-18 20:53:00
4:53 PM,42.1,28.9,60,29.63,10.0,NW,21.9,29.9,N/A,,Overcast,310,2014-03-18 21:53:00
5:53 PM,39.9,28.9,65,29.68,10.0,NW,23.0,-,N/A,,Overcast,320,2014-03-18 22:53:00
6:53 PM,36.0,30.0,79,29.74,9.0,NW,26.5,35.7,0.00,,Overcast,310,2014-03-18 23:53:00
7:53 PM,34.0,28.9,82,29.79,8.0,NNW,28.8,36.8,0.00,Snow,Light Snow,330,2014-03-19 00:53:00
8:30 PM,33.1,30.0,89,29.79,6.0,NNW,27.6,38.0,0.00,Snow,Light Snow,330,2014-03-19 01:30:00
8:41 PM,33.1,30.0,89,29.80,2.5,NNW,20.7,-,0.00,Snow,Light Snow,330,2014-03-19 01:41:00
8:53 PM,33.1,30.0,89,29.85,2.5,NNW,28.8,39.1,0.00,Snow,Light Snow,330,2014-03-19 01:53:00
9:00 PM,34.0,30.0,85,29.82,8.0,NNW,29.9,39.1,0.00,Snow,Light Snow,340,2014-03-19 02:00:00
9:22 PM,34.0,30.0,85,29.83,4.0,NNW,26.5,39.1,0.00,Snow,Light Snow,340,2014-03-19 02:22:00
9:35 PM,33.1,30.9,92,29.84,5.0,NNW,20.7,31.1,0.00,Snow,Light Snow,330,2014-03-19 02:35:00
9:44 PM,33.1,30.9,92,29.85,7.0,NW,17.3,-,0.00,Snow,Light Snow,320,2014-03-19 02:44:00
9:53 PM,33.1,32.0,96,29.89,5.0,NW,18.4,-,0.00,Snow,Light Snow,320,2014-03-19 02:53:00
10:00 PM,33.1,32.0,96,29.86,6.0,NW,15.0,-,0.00,Snow,Light Snow,320,2014-03-19 03:00:00
10:37 PM,34.0,32.0,92,29.88,10.0,NNW,21.9,28.8,0.00,,Overcast,330,2014-03-19 03:37:00
10:53 PM,34.0,32.0,92,29.92,8.0,NNW,25.3,32.2,0.00,Snow,Light Snow,330,2014-03-19 03:53:00
11:21 PM,35.1,32.0,89,29.91,10.0,NNW,29.9,36.8,0.00,,Overcast,340,2014-03-19 04:21:00
11:53 PM,35.1,30.9,85,29.95,10.0,NNW,21.9,28.8,0.00,,Overcast,330,2014-03-19 04:53:00